GW0720 Weather Reports


Display with metric or nautical units.
time (UTC)temp
F
wind
direction
speed
MPH
gust
MPH
rain 1hr
in
rain 24hr
in
rain mn
in
humidity
%
barometer
mb
20260901160101 91 0 0.0 2.0 0.00 0.00 0.00 63 1018.7
20260901154605 91 0 0.0 3.0 0.00 0.00 0.00 66 1018.8
20260901153247 91 234 0.0 4.0 0.00 0.00 0.00 65 1019.0
20260901151558 91 0 0.0 2.0 0.00 0.00 0.00 68 1018.9
20260901150116 89 0 0.0 4.0 0.00 0.00 0.00 71 1018.9
20260901144559 88 0 0.0 2.0 0.00 0.00 0.00 72 1019.0
20260901143136 87 0 0.0 3.0 0.00 0.00 0.00 74 1019.2
20260901141610 85 0 0.0 5.0 0.00 0.00 0.00 77 1019.0
20260901140058 82 0 0.0 3.0 0.00 0.00 0.00 81 1018.9
20260901134650 80 0 0.0 2.0 0.00 0.00 0.00 85 1019.0
20260901134557 80 0 0.0 2.0 0.00 0.00 0.00 85 1019.0
20260901133109 79 0 0.0 3.0 0.00 0.00 0.00 87 1019.0
20260901131603 77 0 0.0 1.0 0.00 0.00 0.00 93 1019.1
20260901130057 76 0 0.0 3.0 0.00 0.00 0.00 95 1019.0
20260901124555 75 0 0.0 0.0 0.00 0.00 0.00 96 1018.9
20260901121615 74 0 0.0 0.0 0.00 0.00 0.00 97 1018.9
20260901120120 73 0 0.0 0.0 0.00 0.00 0.00 97 1018.9
20260901114555 73 0 0.0 0.0 0.00 0.00 0.00 96 1018.8
20260901113103 72 0 0.0 0.0 0.00 0.00 0.00 96 1018.5
20260901111600 72 0 0.0 0.0 0.00 0.00 0.00 96 1018.5
20260901104605 72 0 0.0 0.0 0.00 0.00 0.00 96 1018.3
20260901103106 72 0 0.0 0.0 0.00 0.00 0.00 96 1018.3
20260901101607 72 0 0.0 0.0 0.00 0.00 0.00 96 1018.3
20260901100107 72 0 0.0 0.0 0.00 0.00 0.00 95 1018.4
20260901094558 72 0 0.0 0.0 0.00 0.00 0.00 95 1018.3
20260901093059 72 0 0.0 0.0 0.00 0.00 0.00 95 1018.4
20260901091600 72 0 0.0 0.0 0.00 0.00 0.00 95 1018.3
20260901090104 72 0 0.0 0.0 0.00 0.00 0.00 95 1018.2
20260901084602 72 0 0.0 0.0 0.00 0.00 0.00 95 1018.2
20260901083104 72 0 0.0 0.0 0.00 0.00 0.00 95 1018.2
20260901081556 72 0 0.0 0.0 0.00 0.00 0.00 95 1018.2
20260901080059 72 0 0.0 0.0 0.00 0.00 0.00 94 1018.3
20260901074553 72 0 0.0 0.0 0.00 0.00 0.00 94 1018.3
20260901073100 72 0 0.0 0.0 0.00 0.00 0.00 94 1018.5
20260901071628 73 0 0.0 0.0 0.00 0.00 0.00 94 1018.6
20260901070056 73 0 0.0 0.0 0.00 0.00 0.00 94 1018.6
20260901064604 73 0 0.0 0.0 0.00 0.00 0.00 94 1018.7
20260901063058 73 0 0.0 0.0 0.00 0.00 0.00 94 1019.0
20260901061602 73 0 0.0 0.0 0.00 0.00 0.00 94 1018.9
20260901060109 73 0 0.0 0.0 0.00 0.00 0.00 93 1019.1
20260901054555 73 0 0.0 0.0 0.00 0.00 0.00 93 1019.1
20260901053111 74 0 0.0 0.0 0.00 0.00 0.00 93 1019.3
20260901051600 74 0 0.0 0.0 0.00 0.00 0.00 93 1019.4
20260901050101 74 0 0.0 0.0 0.00 0.00 0.00 92 1019.5
20260901044557 74 0 0.0 0.0 0.00 0.00 0.00 92 1019.6
20260901043123 74 0 0.0 0.0 0.00 0.00 0.00 91 1019.7
20260901041600 75 0 0.0 0.0 0.00 0.00 0.00 91 1019.6
20260901040125 75 0 0.0 0.0 0.00 0.00 0.00 90 1019.6
20260901034600 75 0 0.0 0.0 0.00 0.00 0.00 90 1019.7
20260901033131 76 0 0.0 0.0 0.00 0.00 0.00 89 1019.7
20260901031628 76 0 0.0 0.0 0.00 0.00 0.00 88 1019.6
20260901030059 77 0 0.0 0.0 0.00 0.00 0.00 88 1019.7
20260901024555 77 0 0.0 0.0 0.00 0.00 0.00 87 1019.5
20260901023109 78 0 0.0 0.0 0.00 0.00 0.00 86 1019.6
20260901021602 78 0 0.0 0.0 0.00 0.00 0.00 86 1019.7
20260901020101 78 0 0.0 0.0 0.00 0.00 0.00 85 1019.7
20260901014607 79 0 0.0 0.0 0.00 0.00 0.00 85 1019.7
20260901013057 79 0 0.0 2.0 0.00 0.00 0.00 85 1019.3
20260901011607 79 0 0.0 0.0 0.00 0.00 0.00 84 1019.3
20260901004607 79 0 0.0 0.0 0.00 0.00 0.00 84 1019.5
20260901003104 79 0 0.0 0.0 0.00 0.00 0.00 82 1019.4
20260901001621 79 0 0.0 1.0 0.00 0.00 0.00 80 1019.3
20260901000107 80 0 0.0 0.0 0.00 0.00 0.00 82 1018.9
20260831234558 81 0 0.0 0.0 0.00 0.00 0.00 79 1019.1
20260831233057 82 0 0.0 0.0 0.00 0.00 0.00 78 1019.1
20260831231609 83 0 0.0 0.0 0.00 0.00 0.00 77 1019.1
20260831230113 84 0 0.0 0.0 0.00 0.00 0.00 74 1019.0
20260831224557 85 0 0.0 0.0 0.00 0.00 0.00 73 1019.0
20260831223112 86 0 0.0 1.0 0.00 0.00 0.00 70 1019.1
20260831221606 87 0 0.0 0.0 0.00 0.00 0.00 68 1019.2
20260831220104 88 0 0.0 1.0 0.00 0.00 0.00 59 1018.9
20260831214605 89 240 1.0 4.0 0.00 0.00 0.00 59 1018.9
20260831213106 89 219 0.0 4.0 0.00 0.00 0.00 60 1018.9
20260831211601 89 199 0.0 3.0 0.00 0.00 0.00 61 1019.0
20260831210125 89 0 0.0 4.0 0.00 0.00 0.00 62 1018.9
20260831204627 89 213 1.0 4.0 0.00 0.00 0.00 60 1018.9
20260831203105 90 217 1.0 4.0 0.00 0.00 0.00 58 1019.0
20260831201602 90 0 0.0 8.0 0.00 0.00 0.00 59 1019.1
20260831200056 91 0 0.0 3.0 0.00 0.00 0.00 60 1019.1
20260831194627 91 235 1.0 3.0 0.00 0.00 0.00 58 1019.2
20260831193107 92 244 0.0 2.0 0.00 0.00 0.00 56 1019.3
20260831191606 92 0 0.0 4.0 0.00 0.00 0.00 60 1019.5
20260831184600 91 220 0.0 5.0 0.00 0.00 0.00 57 1019.8
20260831183127 93 0 0.0 3.0 0.00 0.00 0.00 56 1019.8
20260831181610 92 0 0.0 5.0 0.00 0.00 0.00 58 1019.8
20260831180401 93 228 0.0 6.0 0.00 0.00 0.00 60 1020.1
20260831174604 92 0 0.0 4.0 0.00 0.00 0.00 58 1020.1
20260831173131 92 269 0.0 3.0 0.00 0.00 0.00 59 1020.1
20260831171718 90 0 0.0 7.0 0.00 0.00 0.00 58 1020.2
20260831170058 90 269 0.0 3.0 0.00 0.00 0.00 60 1020.2
20260831164611 90 0 0.0 3.0 0.00 0.00 0.00 64 1020.3
20260831163104 90 234 0.0 3.0 0.00 0.00 0.00 62 1020.7
20260831161601 89 0 0.0 2.0 0.00 0.00 0.00 64 1020.6